Simultaneous Nadir Overpasses (SNOs) Predictions

Prediction of SNOs between AQUA and METOP-B Satellite Orbit:

Table of predicted SNOs for the next 14.0 days since TLE Epoch: 11/1/2013
Index Date (AQUA) Time (AQUA) Lat,Lon (AQUA) SZA (AQUA ) Date (METOP-B) Time (METOP-B) Lat,Lon (METOP-B) SZA (METOP-B ) Distance(km) Time Diff (sec)
1 11/02/2013 07:41:28 73.76, 59.00 88.50 11/02/2013 07:41:04 73.77, 59.08 88.51 3.04 24
2 11/02/2013 08:30:55 -73.83,-133.53 91.42 11/02/2013 08:31:44 -73.83,-133.45 91.42 2.62 49
3 11/05/2013 03:15:51 73.76, 125.40 89.37 11/05/2013 03:15:24 73.75, 125.46 89.37 1.93 27
4 11/05/2013 04:05:18 -73.83, -67.12 90.55 11/05/2013 04:06:04 -73.82, -67.06 90.56 2.49 46
5 11/07/2013 22:50:12 73.71,-168.09 90.16 11/07/2013 22:49:44 73.73,-168.19 90.18 3.58 28
6 11/07/2013 23:39:39 -73.78, -0.60 89.76 11/07/2013 23:40:24 -73.80, -0.68 89.74 3.34 45
7 11/10/2013 18:24:32 73.72,-101.69 90.97 11/10/2013 18:24:02 73.74,-101.74 90.99 2.80 30
8 11/10/2013 19:14:00 -73.84, 65.69 88.90 11/10/2013 19:14:42 -73.82, 65.78 88.92 3.42 42
9 11/13/2013 13:58:52 73.73, -35.30 91.74 11/13/2013 13:58:21 73.74, -35.31 91.76 1.61 31
10 11/13/2013 14:48:19 -73.79, 132.20 88.19 11/13/2013 14:49:02 -73.79, 132.11 88.20 3.07 43




NCC Satellite Simultaneous Nadir Overpasses (SNOs) Prediction Service
